Madison, SD

9:48 AM CDT on September 25, 2017 (GMT -0500)
Madison Municipal

Weather History for KMDS - June, 2013

Change the Weather History Date:

Friday, June 28, 2013

  Actual Average Record
Temperature  
Mean Temperature 70 °F -  
Max Temperature 80 °F 82 °F 82 °F (2012)
Min Temperature 60 °F 58 °F 51 °F (2011)
Cooling Degree Days 5    
Growing Degree Days 20 (Base 50)    
Moisture  
Dew Point 56 °F    
Average Humidity 63    
Maximum Humidity 94    
Minimum Humidity 36    
Precipitation  
Precipitation 0.00 in - - ()
Sea Level Pressure  
Sea Level Pressure 29.99 in    
Wind  
Wind Speed 13 mph (NW)    
Max Wind Speed 31 mph    
Max Gust Speed 40 mph    
Visibility 10 miles    
Events      
Averages and records for this station are not official NWS values.
T = Trace of Precipitation, MM = Missing Value Source: NWS Daily Summary

Daily Weather History Graph

Daily Weather History Graph

Search for Another Location

Airport or City:

Trip Planner

Search our weather history database for the weather conditions in past years. The results will help you decide how hot, cold, wet, or windy it might be!

Date:

Astronomy

Jun. 28, 2013 Rise Set
Actual Time 5:47 AM CDT 9:15 PM CDT
Civil Twilight 5:11 AM CDT 9:51 PM CDT
Nautical Twilight 4:24 AM CDT 10:39 PM CDT
Astronomical Twilight 3:23 AM CDT 11:39 PM CDT
Moon 12:00 AM CDT (6/28) 12:10 PM CDT (6/28)
Length of Visible Light 16h 39m
Length of Day
15h 27m
Waning Gibbous, 66% of the Moon is Illuminated
Jun 28
Waning Gibbous
Jun 29
Last Quarter
Jul 8
New
Jul 15
First Quarter
Jul 22
Full

Hourly Weather History & Observations

Time (CDT) Temp. Heat Index Dew Point Humidity Pressure Visibility Wind Dir Wind Speed Gust Speed Precip Events Conditions
12:10 AM 64.4 °F - 59.0 °F 83% 29.98 in 10.0 mi NW 8.1 mph - N/A   Clear
12:30 AM 64.4 °F - 59.0 °F 83% 29.99 in 10.0 mi WNW 5.8 mph - N/A   Clear
1:10 AM 64.4 °F - 57.2 °F 77% 30.00 in 10.0 mi NW 9.2 mph - N/A   Clear
1:30 AM 62.6 °F - 57.2 °F 82% 30.00 in 10.0 mi NW 8.1 mph - N/A   Clear
1:50 AM 62.6 °F - 57.2 °F 82% 30.00 in 10.0 mi NW 8.1 mph - N/A   Clear
2:10 AM 62.6 °F - 57.2 °F 82% 30.01 in 10.0 mi NW 8.1 mph - N/A   Clear
2:30 AM 62.6 °F - 57.2 °F 82% 30.01 in 10.0 mi NW 9.2 mph - N/A   Clear
2:50 AM 62.6 °F - 59.0 °F 88% 30.02 in 10.0 mi WNW 8.1 mph - N/A   Clear
3:10 AM 62.6 °F - 59.0 °F 88% 30.01 in 10.0 mi NW 8.1 mph - N/A   Clear
3:30 AM 60.8 °F - 59.0 °F 94% 30.01 in 10.0 mi NW 10.4 mph - N/A   Clear
3:50 AM 62.6 °F - 59.0 °F 88% 30.01 in 10.0 mi NW 10.4 mph - N/A   Clear
4:10 AM 62.6 °F - 59.0 °F 88% 30.01 in 10.0 mi NW 10.4 mph - N/A   Clear
4:30 AM 60.8 °F - 59.0 °F 94% 30.00 in 10.0 mi NW 10.4 mph - N/A   Clear
4:50 AM 62.6 °F - 59.0 °F 88% 30.01 in 10.0 mi NW 11.5 mph - N/A   Clear
5:10 AM 60.8 °F - 59.0 °F 94% 30.01 in 10.0 mi NW 11.5 mph - N/A   Clear
5:30 AM 62.6 °F - 59.0 °F 88% 30.01 in 10.0 mi NW 9.2 mph - N/A   Clear
5:50 AM 62.6 °F - 60.8 °F 94% 30.01 in 10.0 mi NW 10.4 mph - N/A   Clear
6:10 AM 62.6 °F - 60.8 °F 94% 30.01 in 10.0 mi NW 10.4 mph - N/A   Clear
6:30 AM 62.6 °F - 60.8 °F 94% 30.01 in 10.0 mi WNW 11.5 mph - N/A   Clear
6:50 AM 64.4 °F - 60.8 °F 88% 30.01 in 10.0 mi NW 10.4 mph - N/A   Clear
7:10 AM 64.4 °F - 60.8 °F 88% 30.02 in 10.0 mi NW 12.7 mph - N/A   Clear
7:30 AM 66.2 °F - 60.8 °F 83% 30.02 in 10.0 mi NW 10.4 mph 16.1 mph N/A   Clear
7:50 AM 68.0 °F - 59.0 °F 73% 30.02 in 10.0 mi NW 15.0 mph - N/A   Clear
8:10 AM 68.0 °F - 59.0 °F 73% 30.02 in 10.0 mi NW 13.8 mph - N/A   Clear
8:30 AM 69.8 °F - 59.0 °F 68% 30.02 in 10.0 mi NNW 13.8 mph - N/A   Clear
8:50 AM 71.6 °F - 59.0 °F 64% 30.02 in 10.0 mi NW 13.8 mph - N/A   Clear
9:10 AM 71.6 °F - 59.0 °F 64% 30.02 in 10.0 mi NW 15.0 mph 21.9 mph N/A   Clear
9:30 AM 71.6 °F - 59.0 °F 64% 30.02 in 10.0 mi NW 16.1 mph 20.7 mph N/A   Clear
9:50 AM 73.4 °F - 57.2 °F 57% 30.01 in 10.0 mi NW 17.3 mph 24.2 mph N/A   Clear
10:10 AM 73.4 °F - 57.2 °F 57% 30.01 in 10.0 mi NW 23.0 mph 29.9 mph N/A   Clear
10:30 AM 73.4 °F - 57.2 °F 57% 30.01 in 10.0 mi NW 20.7 mph 27.6 mph N/A   Clear
10:50 AM 75.2 °F - 59.0 °F 57% 30.01 in 10.0 mi NNW 20.7 mph 26.5 mph N/A   Clear
11:10 AM 75.2 °F - 59.0 °F 57% 30.01 in 10.0 mi NW 19.6 mph 26.5 mph N/A   Clear
11:30 AM 75.2 °F - 59.0 °F 57% 30.01 in 10.0 mi NW 17.3 mph 27.6 mph N/A   Clear
11:50 AM 77.0 °F - 57.2 °F 50% 30.01 in 10.0 mi NW 23.0 mph 28.8 mph N/A   Clear
12:10 PM 77.0 °F - 57.2 °F 50% 30.01 in 10.0 mi NW 26.5 mph 33.4 mph N/A   Partly Cloudy
12:30 PM 77.0 °F - 55.4 °F 47% 30.00 in 10.0 mi NNW 25.3 mph 32.2 mph N/A   Partly Cloudy
12:50 PM 77.0 °F - 55.4 °F 47% 30.00 in 10.0 mi NNW 26.5 mph 35.7 mph N/A   Partly Cloudy
1:10 PM 78.8 °F - 53.6 °F 42% 29.99 in 10.0 mi NNW 25.3 mph 34.5 mph N/A   Clear
1:30 PM 78.8 °F - 51.8 °F 39% 29.99 in 10.0 mi NNW 26.5 mph 38.0 mph N/A   Partly Cloudy
1:50 PM 78.8 °F - 50.0 °F 36% 29.99 in 10.0 mi NNW 21.9 mph 40.3 mph N/A   Partly Cloudy
2:10 PM 78.8 °F - 53.6 °F 42% 29.98 in 10.0 mi NNW 24.2 mph 32.2 mph N/A   Partly Cloudy
2:30 PM 80.6 °F 80.3 °F 53.6 °F 39% 29.98 in 10.0 mi NNW 25.3 mph 33.4 mph N/A   Partly Cloudy
2:50 PM 80.6 °F 80.3 °F 53.6 °F 39% 29.98 in 10.0 mi NNW 19.6 mph 38.0 mph N/A   Clear
3:10 PM 77.0 °F - 51.8 °F 41% 29.99 in 10.0 mi NNW 26.5 mph 35.7 mph N/A   Partly Cloudy
3:30 PM 80.6 °F - 51.8 °F 37% 29.98 in 10.0 mi NNW 31.1 mph 36.8 mph N/A   Partly Cloudy
3:50 PM 78.8 °F - 51.8 °F 39% 29.99 in 10.0 mi NNW 25.3 mph 35.7 mph N/A   Clear
4:10 PM 80.6 °F 80.3 °F 53.6 °F 39% 29.98 in 10.0 mi North 26.5 mph 35.7 mph N/A   Partly Cloudy
4:30 PM 78.8 °F - 53.6 °F 42% 29.98 in 10.0 mi North 25.3 mph 34.5 mph N/A   Clear
4:50 PM 78.8 °F - 51.8 °F 39% 29.98 in 10.0 mi NNW 23.0 mph 31.1 mph N/A   Partly Cloudy
5:10 PM 78.8 °F - 51.8 °F 39% 29.98 in 10.0 mi North 26.5 mph 38.0 mph N/A   Scattered Clouds
5:30 PM 78.8 °F - 53.6 °F 42% 29.98 in 10.0 mi NNW 24.2 mph 27.6 mph N/A   Clear
5:50 PM 78.8 °F - 51.8 °F 39% 29.97 in 10.0 mi North 21.9 mph 32.2 mph N/A   Partly Cloudy
6:10 PM 78.8 °F - 51.8 °F 39% 29.97 in 10.0 mi NNW 19.6 mph 32.2 mph N/A   Scattered Clouds
6:30 PM 78.8 °F - 53.6 °F 42% 29.97 in 10.0 mi NNW 16.1 mph 29.9 mph N/A   Scattered Clouds
6:50 PM 77.0 °F - 53.6 °F 44% 29.97 in 10.0 mi North 15.0 mph 26.5 mph N/A   Scattered Clouds
7:10 PM 77.0 °F - 51.8 °F 41% 29.96 in 10.0 mi North 16.1 mph 24.2 mph N/A   Partly Cloudy
7:30 PM 77.0 °F - 53.6 °F 44% 29.96 in 10.0 mi NNW 12.7 mph - N/A   Partly Cloudy
7:50 PM 77.0 °F - 51.8 °F 41% 29.96 in 10.0 mi NNW 16.1 mph 23.0 mph N/A   Partly Cloudy
8:10 PM 75.2 °F - 53.6 °F 47% 29.96 in 10.0 mi NNW 12.7 mph 21.9 mph N/A   Scattered Clouds
8:30 PM 75.2 °F - 53.6 °F 47% 29.96 in 10.0 mi NNW 11.5 mph 18.4 mph N/A   Partly Cloudy
8:50 PM 71.6 °F - 55.4 °F 57% 29.96 in 10.0 mi NNW 6.9 mph - N/A   Partly Cloudy
9:10 PM 68.0 °F - 55.4 °F 64% 29.96 in 10.0 mi NNW 9.2 mph - N/A   Partly Cloudy
9:30 PM 68.0 °F - 55.4 °F 64% 29.96 in 10.0 mi NW 9.2 mph - N/A   Clear
9:50 PM 66.2 °F - 55.4 °F 68% 29.96 in 10.0 mi NW 10.4 mph - N/A   Clear
10:10 PM 66.2 °F - 55.4 °F 68% 29.96 in 10.0 mi NW 9.2 mph - N/A   Clear
10:30 PM 64.4 °F - 55.4 °F 73% 29.96 in 10.0 mi NW 9.2 mph - N/A   Clear
10:50 PM 64.4 °F - 55.4 °F 73% 29.96 in 10.0 mi NNW 10.4 mph - N/A   Clear
11:10 PM 64.4 °F - 55.4 °F 73% 29.95 in 10.0 mi NW 10.4 mph - N/A   Clear
11:30 PM 66.2 °F - 55.4 °F 68% 29.95 in 10.0 mi NNW 11.5 mph - N/A   Clear
11:50 PM 64.4 °F - 55.4 °F 73% 29.95 in 10.0 mi NNW 10.4 mph - N/A   Clear